Find Starlink 30196

NORAD ID: 57448 Int'l Des: 2023-105 Owner: SPXS Country: US Constellation: starlink operational
LEOCIRCULAR

Live Position

Loading 3D Globe...

About Starlink 30196

Description loading...

Upcoming Passes

Passes for default location (London). Set your location on the main map for personalized predictions.

Altitude History

Loading altitude history...

Two-Line Element Set

1 57448U 23105U 26125.50001156 .00039744 00000-0 14461-2 0 9998
2 57448 43.0009 302.2423 0001551 267.6952 42.5865 15.27576905 5799
Epoch: May 5, 2026 • Age: 6 hours

Current Status

Altitude 490.1 km
Velocity 7.62 km/s
Sub-Earth Point -29.59°S, 25.84°E
Launch Date Jul 24, 2023
Age 2.7 years
Type internet

Technical Details

Classification Payload
Mass 730.00 kg
Dry Mass 700.00 kg
Total Mass 730.00 kg
Length 0.30 m
Diameter 4.10 m
Span 29.00 m
Shape Box + pan
Manufacturer SPXS
Bus Type Starlink V2M
Phase Status In Orbit
Owner/State SPXS/US

Most Searched